CDT,Max TemperatureF,Mean TemperatureF,Min TemperatureF,Max Dew PointF,MeanDew PointF,Min DewpointF,Max Humidity, Mean Humidity, Min Humidity, Max Sea Level PressureIn, Mean Sea Level PressureIn, Min Sea Level PressureIn, Max VisibilityMiles, Mean VisibilityMiles, Min VisibilityMiles, Max Wind SpeedMPH, Mean Wind SpeedMPH, Max Gust SpeedMPH,PrecipitationIn, CloudCover, Events, WindDirDegrees
2013-3-1,30,26,21,22,20,17,87,76,62,30.36,30.29,30.23,10,9,3,17,10,25,0.00,8,Snow,344
2013-3-2,35,23,11,26,20,10,95,78,60,30.35,30.23,30.08,10,10,5,10,3,,0.00,3,,153
2013-3-3,39,33,27,32,28,25,92,82,73,30.06,29.86,29.70,10,9,5,18,10,24,0.00,2,,125
2013-3-4,38,34,29,32,28,22,98,80,66,30.04,29.80,29.65,10,10,2,20,9,24,0.00,5,Snow,9
2013-3-5,32,28,24,22,20,17,81,73,62,30.40,30.21,30.03,10,10,10,36,20,48,0.00,6,,313
2013-3-6,38,29,20,25,21,17,87,74,54,30.43,30.34,30.22,10,10,10,13,7,16,0.00,3,,88
2013-3-7,51,38,25,31,26,22,88,72,43,30.25,30.17,30.08,10,10,10,18,12,23,0.00,0,,124
2013-3-8,54,41,28,41,33,26,96,74,51,30.17,30.06,29.88,10,10,5,18,9,26,0.07,2,Rain-Thunderstorm,113
2013-3-9,55,44,33,52,43,34,100,94,87,29.87,29.70,29.56,10,7,2,22,13,30,0.55,8,Rain-Thunderstorm,99
2013-3-10,33,28,23,34,27,21,100,97,89,29.97,29.88,29.73,10,2,0,28,17,38,0.26,8,Rain-Snow,332
2013-3-11,32,25,18,22,19,16,93,81,63,30.00,29.92,29.88,10,10,7,22,13,28,0.01,4,Snow,295
2013-3-12,32,24,15,26,22,14,98,82,72,30.33,30.17,30.02,10,10,10,25,11,34,0.00,4,,297
2013-3-13,34,22,12,24,19,11,98,78,63,30.44,30.35,30.21,10,10,10,12,5,,0.00,2,,160
2013-3-14,57,44,31,44,34,24,99,76,58,30.21,30.10,30.05,10,10,7,14,6,,0.03,1,,174
2013-3-15,56,47,38,46,40,34,98,78,63,30.05,29.83,29.74,10,9,4,9,4,,0.00,0,,344
2013-3-16,39,33,26,40,27,24,99,84,71,30.18,30.08,29.87,10,9,3,21,12,28,0.00,8,,4
2013-3-17,44,34,25,36,27,21,100,76,57,30.15,29.94,29.73,10,9,2,17,9,20,0.05,5,Rain-Snow,105
2013-3-18,37,32,26,36,23,15,100,69,41,30.05,29.88,29.68,10,9,2,36,17,44,0.04,2,Snow,286
2013-3-19,51,36,20,27,20,16,86,63,28,30.35,30.15,30.05,10,10,10,23,6,30,0.00,0,,321
2013-3-20,35,26,16,15,11,6,82,57,36,30.41,30.29,30.10,10,10,10,18,12,25,0.00,0,,333
2013-3-21,32,27,22,19,15,13,76,62,46,30.10,30.00,29.92,10,10,10,12,6,,0.00,7,,91
2013-3-22,33,30,27,24,21,19,81,69,58,30.03,29.99,29.97,10,10,7,9,5,,0.00,8,Snow,84
2013-3-23,36,33,30,32,27,22,99,83,62,30.12,30.08,30.03,10,8,1,13,4,18,0.02,8,Snow,24
2013-3-24,29,27,24,29,23,20,96,84,72,30.10,30.07,30.05,10,8,2,23,15,30,0.00,8,Snow,322
2013-3-25,31,26,20,26,23,18,95,83,68,30.34,30.23,30.10,10,8,1,23,16,29,0.00,7,Snow,319
2013-3-26,41,28,15,26,20,13,91,72,45,30.36,30.31,30.22,10,10,10,8,4,,0.00,0,,214
2013-3-27,51,39,27,32,27,24,88,65,40,30.26,30.22,30.17,10,10,10,15,8,20,0.00,0,,124
2013-3-28,59,43,28,33,31,28,99,66,34,30.25,30.21,30.15,10,10,5,9,4,,0.00,1,,128
2013-3-29,69,50,30,40,33,29,97,56,25,30.22,30.14,30.03,10,10,7,17,6,22,0.00,2,Rain-Thunderstorm,139
2013-3-30,65,54,44,54,45,36,99,73,35,30.06,29.96,29.92,10,10,3,18,8,29,0.29,4,Rain-Thunderstorm,297
2013-3-31,56,44,32,43,33,23,100,71,30,30.18,30.01,29.96,10,8,2,22,9,31,0.07,2,Rain-Snow,324